When you browse on this site, cookies collect data to enhance your experience and personalize the content and advertising you see.
Visit our Privacy Policy to learn more. By continuing to use the site, you agree to this use of cookies and data.
  • En España
  • Lista de países
  • Para 7 días
  • Temperatura del agua
  • Mapa Satelital
  • El tiempo en el mapa
  • Informadores
  • user-avatar
    Iniciar sesión

    Tiempo cada hora Kipungo

    Hoy, 24 Julio, Miércoles

    Tiempo Temperatura Precipitaciones Viento Presión Humedad
    00:00 +14°C° 0 mm 1 mps 653 mmHg 40%
    01:00 +13°C° 0 mm 1 mps 653 mmHg 46%
    02:00 +12°C° 0 mm 1 mps 652 mmHg 50%
    03:00 +10°C° 0 mm 0 mps 652 mmHg 53%
    04:00 +10°C° 0 mm 0 mps 651 mmHg 56%
    05:00 +10°C° 0 mm 0 mps 652 mmHg 53%
    06:00 +10°C° 0 mm 0 mps 652 mmHg 50%
    07:00 +11°C° 0 mm 1 mps 652 mmHg 47%
    08:00 +15°C° 0 mm 1 mps 653 mmHg 37%
    09:00 +20°C° 0 mm 2 mps 654 mmHg 26%
    10:00 +25°C° 0 mm 2 mps 656 mmHg 16%
    11:00 +28°C° 0 mm 2 mps 655 mmHg 14%
    12:00 +30°C° 0 mm 3 mps 655 mmHg 12%
    13:00 +33°C° 0 mm 3 mps 655 mmHg 10%
    14:00 +32°C° 0 mm 2 mps 655 mmHg 10%
    15:00 +32°C° 0 mm 2 mps 654 mmHg 9%
    16:00 +33°C° 0 mm 1 mps 654 mmHg 9%
    17:00 +29°C° 0 mm 1 mps 654 mmHg 12%
    18:00 +26°C° 0 mm 1 mps 653 mmHg 14%
    19:00 +21°C° 0 mm 2 mps 653 mmHg 17%
    20:00 +20°C° 0 mm 2 mps 653 mmHg 19%
    21:00 +19°C° 0 mm 1 mps 653 mmHg 22%
    22:00 +16°C° 0 mm 1 mps 654 mmHg 25%
    23:00 +15°C° 0 mm 1 mps 653 mmHg 27%

    Mañana, 25 Julio, Jueves

    Tiempo Temperatura Precipitaciones Viento Presión Humedad
    00:00 +15°C° 0 mm 2 mps 653 mmHg 30%
    01:00 +14°C° 0 mm 2 mps 653 mmHg 32%
    02:00 +13°C° 0 mm 1 mps 652 mmHg 34%
    03:00 +12°C° 0 mm 1 mps 652 mmHg 36%
    04:00 +11°C° 0 mm 1 mps 652 mmHg 38%
    05:00 +11°C° 0 mm 1 mps 652 mmHg 36%
    06:00 +11°C° 0 mm 1 mps 653 mmHg 35%
    07:00 +11°C° 0 mm 1 mps 653 mmHg 34%
    08:00 +15°C° 0 mm 1 mps 654 mmHg 28%
    09:00 +20°C° 0 mm 2 mps 655 mmHg 22%
    10:00 +26°C° 0 mm 3 mps 657 mmHg 16%
    11:00 +28°C° 0 mm 3 mps 656 mmHg 13%
    12:00 +30°C° 0 mm 3 mps 656 mmHg 11%
    13:00 +34°C° 0 mm 3 mps 656 mmHg 8%
    14:00 +34°C° 0 mm 3 mps 656 mmHg 8%
    15:00 +34°C° 0 mm 2 mps 655 mmHg 8%
    16:00 +34°C° 0 mm 2 mps 655 mmHg 8%
    17:00 +29°C° 0 mm 1 mps 654 mmHg 10%
    18:00 +25°C° 0 mm 1 mps 654 mmHg 12%
    19:00 +22°C° 0 mm 1 mps 654 mmHg 15%
    20:00 +20°C° 0 mm 1 mps 654 mmHg 17%
    21:00 +18°C° 0 mm 2 mps 654 mmHg 20%
    22:00 +16°C° 0 mm 2 mps 654 mmHg 22%
    23:00 +15°C° 0 mm 1 mps 654 mmHg 26%

    Pasado mañana, 26 Julio, Viernes

    Tiempo Temperatura Precipitaciones Viento Presión Humedad
    00:00 +13°C° 0 mm 1 mps 653 mmHg 31%
    01:00 +12°C° 0 mm 1 mps 653 mmHg 35%
    02:00 +11°C° 0 mm 1 mps 652 mmHg 34%
    03:00 +11°C° 0 mm 1 mps 652 mmHg 34%
    04:00 +10°C° 0 mm 1 mps 652 mmHg 33%
    05:00 +10°C° 0 mm 1 mps 653 mmHg 31%
    06:00 +10°C° 0 mm 1 mps 653 mmHg 30%
    07:00 +10°C° 0 mm 1 mps 653 mmHg 28%
    08:00 +15°C° 0 mm 1 mps 654 mmHg 22%
    09:00 +20°C° 0 mm 2 mps 656 mmHg 17%
    10:00 +26°C° 0 mm 3 mps 657 mmHg 11%
    11:00 +28°C° 0 mm 3 mps 656 mmHg 9%
    12:00 +30°C° 0 mm 3 mps 656 mmHg 8%
    13:00 +34°C° 0 mm 3 mps 656 mmHg 6%
    14:00 +34°C° 0 mm 2 mps 655 mmHg 6%
    15:00 +34°C° 0 mm 2 mps 655 mmHg 6%
    16:00 +33°C° 0 mm 1 mps 655 mmHg 5%
    17:00 +29°C° 0 mm 1 mps 654 mmHg 7%
    18:00 +25°C° 0 mm 1 mps 654 mmHg 10%
    19:00 +21°C° 0 mm 1 mps 653 mmHg 12%
    20:00 +20°C° 0 mm 1 mps 653 mmHg 13%
    21:00 +18°C° 0 mm 1 mps 654 mmHg 15%
    22:00 +16°C° 0 mm 2 mps 654 mmHg 16%
    23:00 +14°C° 0 mm 1 mps 653 mmHg 19%

    27 Julio, Sábado

    Tiempo Temperatura Precipitaciones Viento Presión Humedad
    00:00 +13°C° 0 mm 1 mps 653 mmHg 22%
    01:00 +12°C° 0 mm 1 mps 652 mmHg 24%
    02:00 +10°C° 0 mm 0 mps 652 mmHg 25%
    03:00 +10°C° 0 mm 0 mps 652 mmHg 25%
    04:00 +9°C° 0 mm 0 mps 652 mmHg 26%
    05:00 +9°C° 0 mm 0 mps 652 mmHg 25%
    06:00 +10°C° 0 mm 1 mps 653 mmHg 25%
    07:00 +11°C° 0 mm 1 mps 653 mmHg 24%
    08:00 +15°C° 0 mm 2 mps 654 mmHg 20%
    09:00 +20°C° 0 mm 2 mps 655 mmHg 16%
    10:00 +26°C° 0 mm 3 mps 656 mmHg 11%
    11:00 +28°C° 0 mm 3 mps 656 mmHg 10%
    12:00 +31°C° 0 mm 3 mps 656 mmHg 8%
    13:00 +34°C° 0 mm 2 mps 655 mmHg 7%
    14:00 +34°C° 0 mm 2 mps 655 mmHg 6%
    15:00 +34°C° 0 mm 2 mps 655 mmHg 6%
    16:00 +33°C° 0 mm 1 mps 654 mmHg 5%
    17:00 +29°C° 0 mm 1 mps 654 mmHg 8%
    18:00 +25°C° 0 mm 1 mps 653 mmHg 10%
    19:00 +21°C° 0 mm 1 mps 653 mmHg 12%
    20:00 +19°C° 0 mm 1 mps 653 mmHg 14%
    21:00 +18°C° 0 mm 1 mps 653 mmHg 17%
    22:00 +16°C° 0 mm 2 mps 653 mmHg 19%
    23:00 +15°C° 0 mm 2 mps 653 mmHg 25%

    28 Julio, Domingo

    Tiempo Temperatura Precipitaciones Viento Presión Humedad
    00:00 +14°C° 0 mm 2 mps 652 mmHg 32%
    01:00 +13°C° 0 mm 1 mps 652 mmHg 39%
    02:00 +12°C° 0 mm 1 mps 652 mmHg 41%
    03:00 +11°C° 0 mm 1 mps 651 mmHg 44%
    04:00 +9°C° 0 mm 0 mps 651 mmHg 46%
    05:00 +9°C° 0 mm 0 mps 652 mmHg 44%
    06:00 +9°C° 0 mm 0 mps 652 mmHg 42%
    07:00 +9°C° 0 mm 0 mps 652 mmHg 39%
    08:00 +15°C° 0 mm 1 mps 654 mmHg 30%
    09:00 +20°C° 0 mm 2 mps 655 mmHg 22%
    10:00 +27°C° 0 mm 2 mps 656 mmHg 13%
    11:00 +29°C° 0 mm 2 mps 656 mmHg 11%
    12:00 +31°C° 0 mm 2 mps 656 mmHg 9%
    13:00 +35°C° 0 mm 2 mps 655 mmHg 7%
    14:00 +35°C° 0 mm 2 mps 655 mmHg 7%
    15:00 +35°C° 0 mm 2 mps 655 mmHg 6%
    16:00 +33°C° 0 mm 1 mps 654 mmHg 6%
    17:00 +29°C° 0 mm 1 mps 654 mmHg 9%
    18:00 +26°C° 0 mm 1 mps 653 mmHg 12%
    19:00 +22°C° 0 mm 1 mps 653 mmHg 16%
    20:00 +20°C° 0 mm 1 mps 653 mmHg 26%
    21:00 +18°C° 0 mm 1 mps 653 mmHg 37%
    22:00 +15°C° 0 mm 2 mps 653 mmHg 47%
    23:00 +14°C° 0 mm 1 mps 653 mmHg 52%

    29 Julio, Lunes

    Tiempo Temperatura Precipitaciones Viento Presión Humedad
    00:00 +14°C° 0 mm 1 mps 653 mmHg 56%
    01:00 +13°C° 0 mm 1 mps 652 mmHg 61%
    02:00 +12°C° 0 mm 1 mps 652 mmHg 63%
    03:00 +12°C° 0 mm 1 mps 652 mmHg 65%
    04:00 +11°C° 0 mm 1 mps 652 mmHg 67%
    05:00 +10°C° 0 mm 0 mps 652 mmHg 66%
    06:00 +10°C° 0 mm 0 mps 653 mmHg 65%
    07:00 +11°C° 0 mm 0 mps 653 mmHg 64%
    08:00 +16°C° 0 mm 0 mps 655 mmHg 50%
    09:00 +21°C° 0 mm 0 mps 656 mmHg 35%
    10:00 +29°C° 0 mm 1 mps 657 mmHg 20%
    11:00 +32°C° 0 mm 1 mps 657 mmHg 16%
    12:00 +33°C° 0 mm 0 mps 657 mmHg 12%
    13:00 +36°C° 0 mm 0 mps 657 mmHg 8%
    14:00 +34°C° 0 mm 0 mps 656 mmHg 8%
    15:00 +33°C° 0 mm 0 mps 655 mmHg 8%
    16:00 +32°C° 0 mm 0 mps 655 mmHg 8%
    17:00 +30°C° 0 mm 1 mps 654 mmHg 13%
    18:00 +26°C° 0 mm 1 mps 654 mmHg 18%
    19:00 +20°C° 0 mm 2 mps 653 mmHg 22%
    20:00 +19°C° 0 mm 2 mps 653 mmHg 28%
    21:00 +17°C° 0 mm 2 mps 653 mmHg 34%
    22:00 +15°C° 0 mm 2 mps 653 mmHg 40%
    23:00 +15°C° 0 mm 2 mps 653 mmHg 41%
    Mostrar más